Location: Newark
(52.3500°N, 175.9667°E)
Time: 22:16:14
(UTC+00:00)

Altair - Pass Details

Date: 02 May 2021
Orbit: 1501 x 1683 km, 47.2° (Epoch: 05 May)

Event Time Altitude Azimuth Distance (km) Brightness Sun altitude
Rises 22:02:44 0° 286° (WNW) 4,820 9.7 45.2°
Reaches altitude 10° 22:07:17 10° 268° (W) 3,794 9.4 45.7°
Maximum altitude 22:12:48 17° 232° (SW) 3,212 9.3 46.3°
Drops below altitude 10° 22:18:14 10° 196° (SSW) 3,704 10.0 46.9°
Sets 22:22:37 0° 177° (S) 4,656 10.5 47.3°
